Time,TemperatureF,DewpointF,PressureIn,WindDirection,WindDirectionDegrees,WindSpeedMPH,WindSpeedGustMPH,Humidity,HourlyPrecipIn,Conditions,Clouds,dailyrainin,SolarRadiationWatts/m^2,SoftwareType,DateUTC
2013-04-14 00:00:00,68.1,68.1,30.03,NNW,341,0.0,3.0,100,0.00,,,0.00,0,Wunderground v.1.15,2013-04-14 10:00:00,
2013-04-14 00:09:00,68.0,68.0,30.02,NNW,348,3.0,3.0,100,0.00,,,0.00,0,Wunderground v.1.15,2013-04-14 10:09:00,
2013-04-14 00:15:00,68.0,68.0,30.02,NNW,348,2.0,3.0,100,0.00,,,0.00,0,Wunderground v.1.15,2013-04-14 10:15:00,
2013-04-14 00:20:00,68.0,68.0,30.02,NNW,348,0.0,0.0,100,0.00,,,0.00,0,Wunderground v.1.15,2013-04-14 10:20:00,
2013-04-14 00:25:00,68.0,68.0,30.01,NNW,348,1.0,3.0,100,0.00,,,0.00,0,Wunderground v.1.15,2013-04-14 10:25:00,
2013-04-14 00:30:00,67.9,67.9,30.01,NNW,348,2.0,2.0,100,0.00,,,0.00,0,Wunderground v.1.15,2013-04-14 10:30:00,
2013-04-14 00:35:00,67.9,67.9,30.01,NNW,348,1.0,2.0,100,0.00,,,0.00,0,Wunderground v.1.15,2013-04-14 10:35:00,
2013-04-14 00:40:00,67.8,67.8,30.01,NNW,348,0.0,0.0,100,0.00,,,0.00,0,Wunderground v.1.15,2013-04-14 10:40:00,
2013-04-14 00:45:00,67.8,67.8,30.01,NNW,348,0.0,0.0,100,0.00,,,0.00,0,Wunderground v.1.15,2013-04-14 10:45:00,
2013-04-14 00:50:00,67.7,67.7,30.01,NNW,348,0.0,2.0,100,0.00,,,0.00,0,Wunderground v.1.15,2013-04-14 10:50:00,
2013-04-14 00:55:00,67.7,67.7,30.01,NNW,348,1.0,2.0,100,0.00,,,0.00,0,Wunderground v.1.15,2013-04-14 10:55:00,
2013-04-14 01:00:00,67.7,67.7,30.01,NNW,346,2.0,2.0,100,0.00,,,0.00,0,Wunderground v.1.15,2013-04-14 11:00:00,
2013-04-14 01:10:00,67.7,67.7,30.00,NNW,344,2.0,2.0,100,0.00,,,0.00,0,Wunderground v.1.15,2013-04-14 11:10:00,
2013-04-14 01:15:00,67.8,67.8,29.99,NNW,344,1.0,3.0,100,0.00,,,0.00,0,Wunderground v.1.15,2013-04-14 11:15:00,
2013-04-14 01:20:00,67.9,67.9,29.99,NNW,344,1.0,1.0,100,0.00,,,0.00,0,Wunderground v.1.15,2013-04-14 11:20:00,
2013-04-14 01:25:00,67.9,67.9,29.99,NNW,344,0.0,1.0,100,0.00,,,0.00,0,Wunderground v.1.15,2013-04-14 11:25:00,
2013-04-14 01:30:00,67.9,67.9,29.99,NNW,344,0.0,0.0,100,0.00,,,0.00,0,Wunderground v.1.15,2013-04-14 11:30:00,
2013-04-14 01:40:00,67.9,67.9,29.99,ENE,59,1.0,5.0,100,0.00,,,0.00,0,Wunderground v.1.15,2013-04-14 11:40:00,
2013-04-14 01:45:00,67.9,67.9,29.99,ENE,59,1.0,5.0,100,0.00,,,0.00,0,Wunderground v.1.15,2013-04-14 11:45:00,
2013-04-14 01:50:00,67.9,67.9,29.99,ENE,59,1.0,1.0,100,0.00,,,0.00,0,Wunderground v.1.15,2013-04-14 11:50:00,
2013-04-14 01:55:00,67.9,67.9,29.98,ENE,59,0.0,1.0,100,0.00,,,0.00,0,Wunderground v.1.15,2013-04-14 11:55:00,
2013-04-14 02:00:00,67.9,67.9,29.98,ENE,59,0.0,0.0,100,0.00,,,0.00,0,Wunderground v.1.15,2013-04-14 12:00:00,
2013-04-14 02:09:00,67.9,67.9,29.97,ENE,59,0.0,0.0,100,0.00,,,0.00,0,Wunderground v.1.15,2013-04-14 12:09:00,
2013-04-14 02:15:00,67.8,67.8,29.97,ENE,59,0.0,0.0,100,0.00,,,0.00,0,Wunderground v.1.15,2013-04-14 12:15:00,
2013-04-14 02:20:00,67.8,67.8,29.97,ENE,59,1.0,2.0,100,0.00,,,0.00,0,Wunderground v.1.15,2013-04-14 12:20:00,
2013-04-14 02:25:00,67.8,67.8,29.96,ENE,59,2.0,2.0,100,0.00,,,0.00,0,Wunderground v.1.15,2013-04-14 12:25:00,
2013-04-14 02:35:00,67.8,67.8,29.96,NE,36,1.0,3.0,100,0.00,,,0.00,0,Wunderground v.1.15,2013-04-14 12:35:00,
2013-04-14 02:40:00,67.8,67.8,29.97,NE,36,2.0,3.0,100,0.00,,,0.00,0,Wunderground v.1.15,2013-04-14 12:40:00,
2013-04-14 02:45:00,67.8,67.8,29.96,NE,36,2.0,5.0,100,0.00,,,0.00,0,Wunderground v.1.15,2013-04-14 12:45:00,
2013-04-14 02:50:00,67.8,67.8,29.96,NE,36,2.0,2.0,100,0.00,,,0.00,0,Wunderground v.1.15,2013-04-14 12:50:00,
2013-04-14 02:55:00,67.9,67.9,29.95,NE,36,1.0,2.0,100,0.00,,,0.00,0,Wunderground v.1.15,2013-04-14 12:55:00,
2013-04-14 03:00:00,67.8,67.8,29.95,NE,36,0.0,0.0,100,0.00,,,0.00,0,Wunderground v.1.15,2013-04-14 13:00:00,
2013-04-14 03:10:00,67.8,67.8,29.95,NE,36,1.0,3.0,100,0.00,,,0.00,0,Wunderground v.1.15,2013-04-14 13:10:00,
2013-04-14 03:15:00,67.8,67.8,29.95,NE,36,1.0,3.0,100,0.00,,,0.00,0,Wunderground v.1.15,2013-04-14 13:15:00,
2013-04-14 03:20:00,67.9,67.9,29.95,NE,36,0.0,0.0,100,0.00,,,0.00,0,Wunderground v.1.15,2013-04-14 13:20:00,
2013-04-14 03:29:00,67.9,67.9,29.95,NE,36,0.0,0.0,100,0.00,,,0.00,0,Wunderground v.1.15,2013-04-14 13:29:00,
2013-04-14 03:35:00,67.9,67.9,29.94,NE,36,0.0,0.0,100,0.00,,,0.00,0,Wunderground v.1.15,2013-04-14 13:35:00,
2013-04-14 03:40:00,67.9,67.9,29.94,NE,36,0.0,0.0,100,0.00,,,0.00,0,Wunderground v.1.15,2013-04-14 13:40:00,
2013-04-14 03:50:00,67.8,67.8,29.94,NE,36,2.0,2.0,100,0.00,,,0.00,0,Wunderground v.1.15,2013-04-14 13:50:00,
2013-04-14 03:55:00,67.8,67.8,29.94,NE,36,2.0,3.0,100,0.00,,,0.00,0,Wunderground v.1.15,2013-04-14 13:55:00,
2013-04-14 04:00:00,67.8,67.5,29.94,NE,36,2.0,2.0,99,0.00,,,0.00,0,Wunderground v.1.15,2013-04-14 14:00:00,
2013-04-14 04:10:00,67.6,67.3,29.94,NE,36,1.0,1.0,99,0.00,,,0.00,0,Wunderground v.1.15,2013-04-14 14:10:00,
2013-04-14 04:15:00,67.5,67.2,29.94,NE,36,1.0,1.0,99,0.00,,,0.00,0,Wunderground v.1.15,2013-04-14 14:15:00,
2013-04-14 04:20:00,67.4,67.1,29.94,NE,36,1.0,2.0,99,0.00,,,0.00,0,Wunderground v.1.15,2013-04-14 14:20:00,
2013-04-14 04:25:00,67.1,66.8,29.95,NE,36,1.0,2.0,99,0.00,,,0.00,0,Wunderground v.1.15,2013-04-14 14:25:00,
2013-04-14 04:30:00,66.8,66.5,29.95,NE,36,2.0,2.0,99,0.00,,,0.00,0,Wunderground v.1.15,2013-04-14 14:30:00,
2013-04-14 04:35:00,66.6,66.3,29.95,NE,36,1.0,2.0,99,0.00,,,0.00,0,Wunderground v.1.15,2013-04-14 14:35:00,
2013-04-14 04:40:00,66.3,66.0,29.95,NE,36,0.0,3.0,99,0.00,,,0.00,0,Wunderground v.1.15,2013-04-14 14:40:00,
2013-04-14 04:45:00,66.0,65.4,29.95,NNE,27,2.0,3.0,98,0.00,,,0.00,0,Wunderground v.1.15,2013-04-14 14:45:00,
2013-04-14 04:54:00,65.9,65.3,29.96,NNE,27,2.0,2.0,98,0.00,,,0.00,0,Wunderground v.1.15,2013-04-14 14:54:00,
2013-04-14 05:00:00,65.9,65.3,29.97,NNE,27,2.0,2.0,98,0.00,,,0.00,0,Wunderground v.1.15,2013-04-14 15:00:00,
2013-04-14 05:10:00,65.7,65.4,29.97,NNE,27,0.0,0.0,99,0.00,,,0.00,0,Wunderground v.1.15,2013-04-14 15:10:00,
2013-04-14 05:15:00,65.7,65.4,29.97,NNE,27,0.0,0.0,99,0.00,,,0.00,0,Wunderground v.1.15,2013-04-14 15:15:00,
2013-04-14 05:20:00,65.7,65.4,29.97,NNE,27,0.0,0.0,99,0.00,,,0.00,0,Wunderground v.1.15,2013-04-14 15:20:00,
2013-04-14 05:29:00,65.9,65.9,29.98,NNE,27,0.0,0.0,100,0.00,,,0.00,0,Wunderground v.1.15,2013-04-14 15:29:00,
2013-04-14 05:35:00,66.0,66.0,29.97,NNE,27,0.0,0.0,100,0.00,,,0.00,0,Wunderground v.1.15,2013-04-14 15:35:00,
2013-04-14 05:40:00,66.0,66.0,29.98,NNE,27,0.0,0.0,100,0.00,,,0.00,0,Wunderground v.1.15,2013-04-14 15:40:00,
2013-04-14 05:45:00,66.2,66.2,29.98,NNE,27,0.0,0.0,100,0.00,,,0.00,0,Wunderground v.1.15,2013-04-14 15:45:00,
2013-04-14 05:50:00,66.3,66.3,29.98,NNE,27,0.0,0.0,100,0.00,,,0.00,0,Wunderground v.1.15,2013-04-14 15:50:00,
2013-04-14 05:55:00,66.4,66.4,29.98,NNE,27,0.0,4.0,100,0.00,,,0.00,0,Wunderground v.1.15,2013-04-14 15:55:00,
2013-04-14 06:00:00,66.4,66.4,29.98,NNE,27,1.0,1.0,100,0.00,,,0.00,0,Wunderground v.1.15,2013-04-14 16:00:00,
2013-04-14 06:10:00,66.4,66.4,29.99,NNE,27,0.0,0.0,100,0.00,,,0.00,5,Wunderground v.1.15,2013-04-14 16:10:00,
2013-04-14 06:20:00,66.0,66.0,29.99,NNE,27,0.0,0.0,100,0.00,,,0.00,11,Wunderground v.1.15,2013-04-14 16:20:00,
2013-04-14 06:25:00,65.9,65.6,29.99,NNE,28,1.0,3.0,99,0.00,,,0.00,18,Wunderground v.1.15,2013-04-14 16:25:00,
2013-04-14 06:30:00,65.8,65.5,29.99,NNE,28,2.0,2.0,99,0.00,,,0.00,26,Wunderground v.1.15,2013-04-14 16:30:00,
2013-04-14 06:35:00,65.8,65.5,29.99,NNE,28,2.0,3.0,99,0.00,,,0.00,33,Wunderground v.1.15,2013-04-14 16:35:00,
2013-04-14 06:44:00,66.0,65.7,30.00,NNE,28,1.0,2.0,99,0.00,,,0.00,40,Wunderground v.1.15,2013-04-14 16:44:00,
2013-04-14 06:50:00,66.2,65.9,30.00,NNE,28,1.0,1.0,99,0.00,,,0.00,42,Wunderground v.1.15,2013-04-14 16:50:00,
2013-04-14 06:55:00,66.3,66.0,30.00,NNE,28,1.0,1.0,99,0.00,,,0.00,46,Wunderground v.1.15,2013-04-14 16:55:00,
2013-04-14 07:00:00,66.6,66.3,30.00,NNE,28,0.0,3.0,99,0.00,,,0.00,47,Wunderground v.1.15,2013-04-14 17:00:00,
2013-04-14 07:10:00,66.8,66.5,30.00,NNE,28,2.0,2.0,99,0.00,,,0.00,53,Wunderground v.1.15,2013-04-14 17:10:00,
2013-04-14 07:15:00,66.9,66.6,30.00,NNE,28,1.0,2.0,99,0.00,,,0.00,53,Wunderground v.1.15,2013-04-14 17:15:00,
2013-04-14 07:20:00,67.1,67.1,30.01,NNE,28,0.0,0.0,100,0.00,,,0.00,62,Wunderground v.1.15,2013-04-14 17:20:00,
2013-04-14 07:25:00,67.2,67.2,30.01,NNE,28,0.0,0.0,100,0.00,,,0.00,93,Wunderground v.1.15,2013-04-14 17:25:00,
2013-04-14 07:35:00,67.7,67.7,30.01,NNE,28,0.0,0.0,100,0.00,,,0.00,105,Wunderground v.1.15,2013-04-14 17:35:00,
2013-04-14 07:40:00,67.9,67.9,30.01,NNE,28,0.0,0.0,100,0.00,,,0.00,127,Wunderground v.1.15,2013-04-14 17:40:00,
2013-04-14 07:45:00,68.2,68.2,30.01,NNE,28,0.0,0.0,100,0.00,,,0.00,127,Wunderground v.1.15,2013-04-14 17:45:00,
2013-04-14 07:54:00,68.6,68.6,30.01,NNE,28,0.0,0.0,100,0.00,,,0.00,100,Wunderground v.1.15,2013-04-14 17:54:00,
2013-04-14 08:00:00,68.8,68.8,30.01,NNE,28,0.0,0.0,100,0.00,,,0.00,111,Wunderground v.1.15,2013-04-14 18:00:00,
2013-04-14 08:10:00,69.3,69.0,30.01,NNE,28,1.0,2.0,99,0.00,,,0.00,160,Wunderground v.1.15,2013-04-14 18:10:00,
2013-04-14 08:19:00,69.8,69.2,30.01,NNE,28,1.0,1.0,98,0.00,,,0.00,171,Wunderground v.1.15,2013-04-14 18:19:00,
2013-04-14 08:25:00,70.0,69.1,30.01,NNE,28,2.0,2.0,97,0.00,,,0.00,188,Wunderground v.1.15,2013-04-14 18:25:00,
2013-04-14 08:30:00,70.4,69.2,30.01,NNE,28,1.0,1.0,96,0.00,,,0.00,202,Wunderground v.1.15,2013-04-14 18:30:00,
2013-04-14 08:35:00,70.6,69.4,30.02,NNE,28,0.0,1.0,96,0.00,,,0.00,193,Wunderground v.1.15,2013-04-14 18:35:00,
2013-04-14 08:40:00,70.9,69.1,30.02,NNE,29,1.0,1.0,94,0.00,,,0.00,206,Wunderground v.1.15,2013-04-14 18:40:00,
2013-04-14 08:50:00,71.3,69.2,30.01,NNE,29,1.0,1.0,93,0.00,,,0.00,287,Wunderground v.1.15,2013-04-14 18:50:00,
2013-04-14 08:55:00,71.7,69.3,30.02,NNE,29,0.0,1.0,92,0.00,,,0.00,253,Wunderground v.1.15,2013-04-14 18:55:00,
2013-04-14 09:00:00,71.9,69.4,30.02,NNE,29,1.0,3.0,92,0.00,,,0.00,223,Wunderground v.1.15,2013-04-14 19:00:00,
2013-04-14 09:10:00,71.8,69.3,30.02,ENE,67,4.0,4.0,92,0.00,,,0.00,229,Wunderground v.1.15,2013-04-14 19:10:00,
2013-04-14 09:15:00,71.7,69.3,30.02,ENE,74,3.0,4.0,92,0.00,,,0.00,239,Wunderground v.1.15,2013-04-14 19:15:00,
2013-04-14 09:20:00,71.8,69.3,30.03,ENE,74,2.0,2.0,92,0.00,,,0.00,251,Wunderground v.1.15,2013-04-14 19:20:00,
2013-04-14 09:25:00,72.1,69.6,30.03,ENE,74,0.0,2.0,92,0.00,,,0.00,281,Wunderground v.1.15,2013-04-14 19:25:00,
2013-04-14 09:34:00,72.7,70.2,30.02,ENE,69,1.0,4.0,92,0.00,,,0.00,281,Wunderground v.1.15,2013-04-14 19:34:00,
2013-04-14 09:40:00,72.7,70.2,30.02,ENE,69,2.0,2.0,92,0.00,,,0.00,315,Wunderground v.1.15,2013-04-14 19:40:00,
2013-04-14 09:45:00,72.7,70.2,30.02,ENE,69,2.0,3.0,92,0.00,,,0.00,243,Wunderground v.1.15,2013-04-14 19:45:00,
2013-04-14 09:50:00,72.7,70.2,30.02,East,98,3.0,4.0,92,0.00,,,0.00,271,Wunderground v.1.15,2013-04-14 19:50:00,
2013-04-14 09:55:00,72.5,69.7,30.02,ESE,107,4.0,4.0,91,0.00,,,0.00,364,Wunderground v.1.15,2013-04-14 19:55:00,
2013-04-14 10:00:00,72.5,70.0,30.02,ESE,107,4.0,5.0,92,0.00,,,0.00,353,Wunderground v.1.15,2013-04-14 20:00:00,
2013-04-14 10:10:00,72.6,70.1,30.02,ESE,109,4.0,4.0,92,0.00,,,0.00,246,Wunderground v.1.15,2013-04-14 20:10:00,
2013-04-14 10:15:00,72.5,69.4,30.02,East,100,3.0,4.0,90,0.00,,,0.00,258,Wunderground v.1.15,2013-04-14 20:15:00,
2013-04-14 10:20:00,72.5,69.4,30.02,East,99,2.0,3.0,90,0.00,,,0.00,285,Wunderground v.1.15,2013-04-14 20:20:00,
2013-04-14 10:25:00,72.4,69.0,30.02,East,100,2.0,3.0,89,0.00,,,0.00,374,Wunderground v.1.15,2013-04-14 20:25:00,
2013-04-14 10:30:00,72.4,69.3,30.02,East,100,2.0,2.0,90,0.00,,,0.00,352,Wunderground v.1.15,2013-04-14 20:30:00,
2013-04-14 10:39:00,72.8,70.0,30.02,East,100,1.0,1.0,91,0.00,,,0.00,338,Wunderground v.1.15,2013-04-14 20:39:00,
2013-04-14 10:45:00,72.9,69.8,30.01,East,100,1.0,3.0,90,0.00,,,0.00,318,Wunderground v.1.15,2013-04-14 20:45:00,
2013-04-14 10:50:00,73.0,69.9,30.01,East,100,1.0,1.0,90,0.00,,,0.00,352,Wunderground v.1.15,2013-04-14 20:50:00,
2013-04-14 10:55:00,73.4,70.3,30.02,East,100,0.0,1.0,90,0.00,,,0.00,487,Wunderground v.1.15,2013-04-14 20:55:00,
2013-04-14 11:00:00,73.6,69.8,30.02,East,100,1.0,1.0,88,0.00,,,0.00,394,Wunderground v.1.15,2013-04-14 21:00:00,
2013-04-14 11:10:00,73.6,68.8,30.01,East,93,2.0,5.0,85,0.00,,,0.00,466,Wunderground v.1.15,2013-04-14 21:10:00,
2013-04-14 11:15:00,73.6,68.8,30.01,East,94,3.0,5.0,85,0.00,,,0.00,485,Wunderground v.1.15,2013-04-14 21:15:00,
2013-04-14 11:25:00,74.4,70.3,30.01,ENE,64,2.0,3.0,87,0.00,,,0.00,573,Wunderground v.1.15,2013-04-14 21:25:00,
2013-04-14 11:30:00,74.4,70.3,30.01,NE,52,2.0,3.0,87,0.00,,,0.00,499,Wunderground v.1.15,2013-04-14 21:30:00,
2013-04-14 11:35:00,74.2,69.7,30.00,ENE,63,3.0,5.0,86,0.00,,,0.00,561,Wunderground v.1.15,2013-04-14 21:35:00,
2013-04-14 11:40:00,74.0,69.9,30.00,ENE,63,3.0,3.0,87,0.00,,,0.00,533,Wunderground v.1.15,2013-04-14 21:40:00,
2013-04-14 11:49:00,74.3,70.2,30.00,ENE,63,2.0,2.0,87,0.00,,,0.00,490,Wunderground v.1.15,2013-04-14 21:49:00,
2013-04-14 11:55:00,74.4,70.3,30.00,ENE,63,1.0,2.0,87,0.00,,,0.00,499,Wunderground v.1.15,2013-04-14 21:55:00,
2013-04-14 12:00:00,74.4,70.3,29.99,ENE,63,0.0,0.0,87,0.00,,,0.00,346,Wunderground v.1.15,2013-04-14 22:00:00,
2013-04-14 12:10:00,74.7,70.9,29.99,ENE,65,2.0,4.0,88,0.00,,,0.00,485,Wunderground v.1.15,2013-04-14 22:10:00,
2013-04-14 12:19:00,74.7,70.9,29.99,ENE,68,2.0,4.0,88,0.00,,,0.00,318,Wunderground v.1.15,2013-04-14 22:19:00,
2013-04-14 12:25:00,74.8,71.0,29.99,SE,133,3.0,4.0,88,0.00,,,0.00,290,Wunderground v.1.15,2013-04-14 22:25:00,
2013-04-14 12:30:00,74.5,71.0,29.98,SE,133,3.0,3.0,89,0.00,,,0.00,323,Wunderground v.1.15,2013-04-14 22:30:00,
2013-04-14 12:40:00,74.3,71.2,29.98,SE,136,3.0,3.0,90,0.00,,,0.00,429,Wunderground v.1.15,2013-04-14 22:40:00,
2013-04-14 12:45:00,74.4,70.9,29.97,SE,136,3.0,3.0,89,0.00,,,0.00,483,Wunderground v.1.15,2013-04-14 22:45:00,
2013-04-14 12:50:00,74.6,70.8,29.97,SE,132,4.0,5.0,88,0.00,,,0.00,1095,Wunderground v.1.15,2013-04-14 22:50:00,
2013-04-14 12:55:00,74.8,70.7,29.97,SE,145,4.0,5.0,87,0.00,,,0.00,499,Wunderground v.1.15,2013-04-14 22:55:00,
2013-04-14 13:00:00,75.2,71.4,29.97,SE,134,4.0,4.0,88,0.00,,,0.00,1227,Wunderground v.1.15,2013-04-14 23:00:00,
2013-04-14 13:10:00,75.7,71.2,29.97,SSE,165,4.0,4.0,86,0.00,,,0.00,457,Wunderground v.1.15,2013-04-14 23:10:00,
2013-04-14 13:15:00,75.6,71.1,29.96,SSE,157,4.0,7.0,86,0.00,,,0.00,309,Wunderground v.1.15,2013-04-14 23:15:00,
2013-04-14 13:20:00,75.1,70.6,29.96,South,191,4.0,4.0,86,0.00,,,0.00,304,Wunderground v.1.15,2013-04-14 23:20:00,
2013-04-14 13:25:00,75.0,70.5,29.96,SSW,205,4.0,4.0,86,0.00,,,0.00,408,Wunderground v.1.15,2013-04-14 23:25:00,
2013-04-14 13:30:00,74.8,70.3,29.97,SSW,196,3.0,5.0,86,0.00,,,0.00,306,Wunderground v.1.15,2013-04-14 23:30:00,
2013-04-14 13:35:00,74.6,70.1,29.97,South,182,3.0,5.0,86,0.00,,,0.00,255,Wunderground v.1.15,2013-04-14 23:35:00,
2013-04-14 13:45:00,74.3,70.2,29.97,SSE,153,3.0,3.0,87,0.00,,,0.00,209,Wunderground v.1.15,2013-04-14 23:45:00,
2013-04-14 13:50:00,74.1,70.0,29.97,SSE,153,3.0,3.0,87,0.00,,,0.00,213,Wunderground v.1.15,2013-04-14 23:50:00,
2013-04-14 13:55:00,74.1,70.0,29.96,SSE,160,2.0,3.0,87,0.00,,,0.00,234,Wunderground v.1.15,2013-04-14 23:55:00,
2013-04-14 14:00:00,74.2,70.4,29.96,SSE,157,2.0,6.0,88,0.00,,,0.00,279,Wunderground v.1.15,2013-04-15 00:00:00,
2013-04-14 14:10:00,74.0,70.6,29.96,SSE,148,4.0,4.0,89,0.00,,,0.00,244,Wunderground v.1.15,2013-04-15 00:10:00,
2013-04-14 14:15:00,73.9,70.5,29.96,SSE,148,4.0,5.0,89,0.00,,,0.00,221,Wunderground v.1.15,2013-04-15 00:15:00,
2013-04-14 14:20:00,73.8,70.7,29.95,SSE,155,3.0,3.0,90,0.00,,,0.00,251,Wunderground v.1.15,2013-04-15 00:20:00,
2013-04-14 14:25:00,73.9,70.8,29.95,SSE,157,3.0,3.0,90,0.00,,,0.00,241,Wunderground v.1.15,2013-04-15 00:25:00,
2013-04-14 14:34:00,73.8,70.4,29.95,SSE,158,4.0,4.0,89,0.00,,,0.00,346,Wunderground v.1.15,2013-04-15 00:34:00,
2013-04-14 14:40:00,73.9,70.8,29.95,SSE,158,3.0,3.0,90,0.00,,,0.00,301,Wunderground v.1.15,2013-04-15 00:40:00,
2013-04-14 14:45:00,74.1,70.6,29.95,SE,146,3.0,3.0,89,0.00,,,0.00,294,Wunderground v.1.15,2013-04-15 00:45:00,
2013-04-14 14:50:00,74.2,71.1,29.95,SSE,153,3.0,5.0,90,0.00,,,0.00,281,Wunderground v.1.15,2013-04-15 00:50:00,
2013-04-14 14:55:00,74.1,71.3,29.95,SW,214,3.0,5.0,91,0.00,,,0.00,246,Wunderground v.1.15,2013-04-15 00:55:00,
2013-04-14 15:00:00,74.0,70.9,29.95,SSW,196,4.0,5.0,90,0.00,,,0.00,264,Wunderground v.1.15,2013-04-15 01:00:00,
2013-04-14 15:10:00,73.8,70.7,29.95,SW,215,5.0,5.0,90,0.00,,,0.00,320,Wunderground v.1.15,2013-04-15 01:10:00,
2013-04-14 15:15:00,74.0,70.9,29.95,SSW,196,4.0,5.0,90,0.00,,,0.00,320,Wunderground v.1.15,2013-04-15 01:15:00,
2013-04-14 15:20:00,74.1,71.0,29.95,SSW,196,3.0,4.0,90,0.00,,,0.00,309,Wunderground v.1.15,2013-04-15 01:20:00,
2013-04-14 15:25:00,74.2,71.1,29.95,SSE,161,3.0,4.0,90,0.00,,,0.00,269,Wunderground v.1.15,2013-04-15 01:25:00,
2013-04-14 15:30:00,74.2,71.4,29.95,SSE,167,3.0,3.0,91,0.00,,,0.00,248,Wunderground v.1.15,2013-04-15 01:30:00,
2013-04-14 15:35:00,74.2,71.4,29.95,SSE,157,3.0,6.0,91,0.00,,,0.00,246,Wunderground v.1.15,2013-04-15 01:35:00,
2013-04-14 15:40:00,74.0,70.9,29.94,SSE,157,2.0,2.0,90,0.00,,,0.00,239,Wunderground v.1.15,2013-04-15 01:40:00,
2013-04-14 15:49:00,74.0,71.2,29.94,SSE,166,2.0,3.0,91,0.00,,,0.00,186,Wunderground v.1.15,2013-04-15 01:49:00,
2013-04-14 15:55:00,73.9,71.1,29.95,SSE,167,2.0,3.0,91,0.00,,,0.00,165,Wunderground v.1.15,2013-04-15 01:55:00,
2013-04-14 16:00:00,73.8,71.0,29.95,SSE,167,2.0,3.0,91,0.00,,,0.00,111,Wunderground v.1.15,2013-04-15 02:00:00,
2013-04-14 16:10:00,73.6,71.1,29.95,South,178,3.0,5.0,92,0.00,,,0.00,86,Wunderground v.1.15,2013-04-15 02:10:00,
2013-04-14 16:15:00,73.4,70.9,29.95,South,178,2.0,5.0,92,0.00,,,0.00,163,Wunderground v.1.15,2013-04-15 02:15:00,
2013-04-14 16:20:00,73.4,70.9,29.95,South,178,1.0,1.0,92,0.00,,,0.00,265,Wunderground v.1.15,2013-04-15 02:20:00,
2013-04-14 16:25:00,73.5,71.0,29.95,South,178,0.0,3.0,92,0.00,,,0.00,158,Wunderground v.1.15,2013-04-15 02:25:00,
2013-04-14 16:30:00,73.5,71.0,29.95,South,178,1.0,1.0,92,0.00,,,0.00,118,Wunderground v.1.15,2013-04-15 02:30:00,
2013-04-14 16:35:00,73.4,70.6,29.95,South,178,1.0,2.0,91,0.00,,,0.00,144,Wunderground v.1.15,2013-04-15 02:35:00,
2013-04-14 16:40:00,73.4,70.9,29.95,South,178,2.0,3.0,92,0.00,,,0.00,153,Wunderground v.1.15,2013-04-15 02:40:00,
2013-04-14 16:45:00,73.4,71.3,29.95,South,178,3.0,3.0,93,0.00,,,0.00,100,Wunderground v.1.15,2013-04-15 02:45:00,
2013-04-14 16:54:00,73.2,71.1,29.95,South,178,1.0,3.0,93,0.00,,,0.00,77,Wunderground v.1.15,2013-04-15 02:54:00,
2013-04-14 17:00:00,73.1,71.0,29.95,South,178,2.0,2.0,93,0.00,,,0.00,97,Wunderground v.1.15,2013-04-15 03:00:00,
2013-04-14 17:10:00,73.0,70.9,29.95,South,178,0.0,0.0,93,0.00,,,0.00,81,Wunderground v.1.15,2013-04-15 03:10:00,
2013-04-14 17:20:00,73.0,70.9,29.95,South,178,0.0,0.0,93,0.00,,,0.00,90,Wunderground v.1.15,2013-04-15 03:20:00,
2013-04-14 17:25:00,72.9,70.8,29.95,South,178,0.0,2.0,93,0.00,,,0.00,111,Wunderground v.1.15,2013-04-15 03:25:00,
2013-04-14 17:30:00,72.8,70.7,29.95,South,178,1.0,1.0,93,0.00,,,0.00,120,Wunderground v.1.15,2013-04-15 03:30:00,
2013-04-14 17:35:00,72.9,70.8,29.96,South,178,1.0,3.0,93,0.00,,,0.00,113,Wunderground v.1.15,2013-04-15 03:35:00,
2013-04-14 17:40:00,72.9,71.1,29.96,South,178,2.0,2.0,94,0.00,,,0.00,88,Wunderground v.1.15,2013-04-15 03:40:00,
2013-04-14 17:45:00,72.9,71.1,29.96,South,178,2.0,2.0,94,0.00,,,0.00,63,Wunderground v.1.15,2013-04-15 03:45:00,
2013-04-14 17:50:00,72.7,70.6,29.96,South,178,2.0,2.0,93,0.00,,,0.00,40,Wunderground v.1.15,2013-04-15 03:50:00,
2013-04-14 17:55:00,72.6,70.5,29.97,South,178,2.0,2.0,93,0.00,,,0.00,40,Wunderground v.1.15,2013-04-15 03:55:00,
2013-04-14 18:00:00,72.4,70.6,29.97,South,178,1.0,1.0,94,0.00,,,0.00,35,Wunderground v.1.15,2013-04-15 04:00:00,
2013-04-14 18:10:00,72.2,70.4,29.97,South,178,0.0,0.0,94,0.00,,,0.00,18,Wunderground v.1.15,2013-04-15 04:10:00,
2013-04-14 18:19:00,72.1,70.3,29.97,South,178,0.0,0.0,94,0.00,,,0.00,12,Wunderground v.1.15,2013-04-15 04:19:00,
2013-04-14 18:25:00,72.0,70.2,29.98,South,178,0.0,0.0,94,0.00,,,0.00,9,Wunderground v.1.15,2013-04-15 04:25:00,
2013-04-14 18:30:00,71.9,70.4,29.98,South,178,0.0,0.0,95,0.00,,,0.00,7,Wunderground v.1.15,2013-04-15 04:30:00,
2013-04-14 18:35:00,71.9,70.4,29.98,South,178,0.0,0.0,95,0.00,,,0.00,0,Wunderground v.1.15,2013-04-15 04:35:00,
2013-04-14 18:40:00,71.8,70.3,29.98,South,178,0.0,0.0,95,0.00,,,0.00,0,Wunderground v.1.15,2013-04-15 04:40:00,
2013-04-14 18:45:00,71.7,70.5,29.98,South,178,0.0,0.0,96,0.00,,,0.00,0,Wunderground v.1.15,2013-04-15 04:45:00,
2013-04-14 18:55:00,71.4,70.2,29.99,South,178,0.0,0.0,96,0.00,,,0.00,0,Wunderground v.1.15,2013-04-15 04:55:00,
2013-04-14 19:00:00,71.3,70.1,29.98,South,178,0.0,0.0,96,0.00,,,0.00,0,Wunderground v.1.15,2013-04-15 05:00:00,
2013-04-14 19:10:00,71.1,70.2,29.99,South,178,0.0,0.0,97,0.00,,,0.00,0,Wunderground v.1.15,2013-04-15 05:10:00,
2013-04-14 19:15:00,70.9,70.0,29.98,South,178,0.0,0.0,97,0.00,,,0.00,0,Wunderground v.1.15,2013-04-15 05:15:00,
2013-04-14 19:25:00,70.5,69.6,29.99,South,178,1.0,2.0,97,0.00,,,0.00,0,Wunderground v.1.15,2013-04-15 05:25:00,
2013-04-14 19:30:00,70.2,69.3,29.99,South,178,2.0,2.0,97,0.00,,,0.00,0,Wunderground v.1.15,2013-04-15 05:30:00,
2013-04-14 19:35:00,69.8,69.2,29.99,South,178,1.0,2.0,98,0.00,,,0.00,0,Wunderground v.1.15,2013-04-15 05:35:00,
2013-04-14 19:40:00,69.6,69.0,29.99,South,178,1.0,2.0,98,0.00,,,0.00,0,Wunderground v.1.15,2013-04-15 05:40:00,
2013-04-14 19:45:00,69.3,68.7,29.99,South,178,2.0,2.0,98,0.00,,,0.00,0,Wunderground v.1.15,2013-04-15 05:45:00,
2013-04-14 19:50:00,69.0,68.4,29.99,South,178,1.0,1.0,98,0.00,,,0.00,0,Wunderground v.1.15,2013-04-15 05:50:00,
2013-04-14 20:00:00,68.6,68.3,30.00,South,178,0.0,0.0,99,0.00,,,0.00,0,Wunderground v.1.15,2013-04-15 06:00:00,
2013-04-14 20:10:00,68.3,68.0,30.00,South,178,0.0,0.0,99,0.00,,,0.00,0,Wunderground v.1.15,2013-04-15 06:10:00,
2013-04-14 20:20:00,67.8,67.5,30.00,South,178,0.0,0.0,99,0.00,,,0.00,0,Wunderground v.1.15,2013-04-15 06:20:00,
2013-04-14 20:25:00,67.7,67.4,30.01,South,178,0.0,0.0,99,0.00,,,0.00,0,Wunderground v.1.15,2013-04-15 06:25:00,
2013-04-14 20:35:00,67.6,67.6,30.01,South,179,2.0,3.0,100,0.00,,,0.00,0,Wunderground v.1.15,2013-04-15 06:35:00,
2013-04-14 20:40:00,67.5,67.5,30.01,South,179,2.0,2.0,100,0.00,,,0.00,0,Wunderground v.1.15,2013-04-15 06:40:00,
2013-04-14 20:45:00,67.4,67.4,30.02,South,179,1.0,2.0,100,0.00,,,0.00,0,Wunderground v.1.15,2013-04-15 06:45:00,
2013-04-14 20:50:00,67.3,67.3,30.02,South,179,0.0,0.0,100,0.00,,,0.00,0,Wunderground v.1.15,2013-04-15 06:50:00,
2013-04-14 20:55:00,67.2,67.2,30.02,South,179,0.0,0.0,100,0.00,,,0.00,0,Wunderground v.1.15,2013-04-15 06:55:00,
2013-04-14 21:00:00,67.1,67.1,30.02,South,179,0.0,0.0,100,0.00,,,0.00,0,Wunderground v.1.15,2013-04-15 07:00:00,
2013-04-14 21:41:00,67.2,67.2,30.04,South,179,2.0,2.0,100,0.00,,,0.00,0,Wunderground v.1.15,2013-04-15 07:41:00,
2013-04-14 21:49:00,67.4,67.4,30.04,South,179,0.0,0.0,100,0.00,,,0.00,0,Wunderground v.1.15,2013-04-15 07:49:00,
2013-04-14 21:55:00,67.6,67.6,30.04,South,179,0.0,2.0,100,0.00,,,0.00,0,Wunderground v.1.15,2013-04-15 07:55:00,
2013-04-14 22:00:00,67.7,67.7,30.05,South,179,2.0,2.0,100,0.00,,,0.00,0,Wunderground v.1.15,2013-04-15 08:00:00,
2013-04-14 22:10:00,67.6,67.6,30.05,South,179,2.0,2.0,100,0.00,,,0.00,0,Wunderground v.1.15,2013-04-15 08:10:00,
2013-04-14 22:15:00,67.6,67.6,30.04,South,179,1.0,2.0,100,0.00,,,0.00,0,Wunderground v.1.15,2013-04-15 08:15:00,
2013-04-14 22:20:00,67.5,67.5,30.05,South,179,1.0,2.0,100,0.00,,,0.00,0,Wunderground v.1.15,2013-04-15 08:20:00,
2013-04-14 22:29:00,67.6,67.6,30.05,SW,223,1.0,3.0,100,0.00,,,0.00,0,Wunderground v.1.15,2013-04-15 08:29:00,
2013-04-14 22:34:00,67.6,67.6,30.05,SW,230,2.0,3.0,100,0.00,,,0.00,0,Wunderground v.1.15,2013-04-15 08:34:00,
2013-04-14 22:40:00,67.5,67.5,30.04,SW,230,2.0,2.0,100,0.00,,,0.00,0,Wunderground v.1.15,2013-04-15 08:40:00,
2013-04-14 22:45:00,67.3,67.3,30.04,SW,232,2.0,3.0,100,0.00,,,0.00,0,Wunderground v.1.15,2013-04-15 08:45:00,
2013-04-14 22:50:00,67.2,66.9,30.04,SW,236,3.0,3.0,99,0.00,,,0.00,0,Wunderground v.1.15,2013-04-15 08:50:00,
2013-04-14 23:00:00,66.9,66.6,30.04,SW,236,2.0,2.0,99,0.00,,,0.00,0,Wunderground v.1.15,2013-04-15 09:00:00,
2013-04-14 23:05:00,66.7,66.4,30.04,SW,236,2.0,2.0,99,0.00,,,0.00,0,Wunderground v.1.15,2013-04-15 09:05:00,
2013-04-14 23:15:00,66.3,65.7,30.04,WSW,237,1.0,2.0,98,0.00,,,0.00,0,Wunderground v.1.15,2013-04-15 09:15:00,
2013-04-14 23:20:00,66.2,65.6,30.04,WSW,237,1.0,1.0,98,0.00,,,0.00,0,Wunderground v.1.15,2013-04-15 09:20:00,
2013-04-14 23:29:00,65.9,65.3,30.03,WSW,237,0.0,3.0,98,0.00,,,0.00,0,Wunderground v.1.15,2013-04-15 09:29:00,
2013-04-14 23:35:00,65.7,64.8,30.03,WSW,237,1.0,3.0,97,0.00,,,0.00,0,Wunderground v.1.15,2013-04-15 09:35:00,
2013-04-14 23:40:00,65.6,64.7,30.03,WSW,237,2.0,2.0,97,0.00,,,0.00,0,Wunderground v.1.15,2013-04-15 09:40:00,
2013-04-14 23:45:00,65.5,64.6,30.03,WSW,237,1.0,2.0,97,0.00,,,0.00,0,Wunderground v.1.15,2013-04-15 09:45:00,
2013-04-14 23:50:00,65.2,64.3,30.03,WSW,237,1.0,2.0,97,0.00,,,0.00,0,Wunderground v.1.15,2013-04-15 09:50:00,
2013-04-14 23:55:00,65.3,64.4,30.03,WSW,237,1.0,3.0,97,0.00,,,0.00,0,Wunderground v.1.15,2013-04-15 09:55:00,